POPACS 2

Last updated on Sat Apr 13 2024 01:03:32 GMT+0100 (British Summer Time)

1 39269U 13055E 24101.57455373 .00019481 00000+0 45851-3 0 9998 2 39269 81.0009 312.6610 0562627 168.7964 192.6404 14.53990402546982
UTC large
Height (km)
Speed (km/s)
/
Latitude / Longitude
Inclination (degrees)
Orbital Period (minutes)
Azimuth
Elevation
Range (km)
Doppler Factor

Next 0 passes for location: London (51.5072 / 0.1276)

Sorry there are no passes over London.